Location: Seattle
(47.6064°N, 122.3308°W)
Time: 23:56:48
(UTC-07:00)

First-Move - Visible Passes

Search period start: 31 March 2023 00:00
Search period end: 10 April 2023 00:00
Orbit: 563 x 644 km, 97.7° (Epoch: 31 March)

Date Brightness Start Highest point End Pass type
(mag) Time Alt. Az. Time Alt. Az. Time Alt. Az.
31 Mar ? 04:51:20 10° NNE 04:55:28 77° ESE 04:57:35 27° S visible
01 Apr ? 03:30:37 10° ENE 03:31:14 10° E 03:31:51 10° E visible
01 Apr ? 05:03:30 10° N 05:07:38 79° WNW 05:10:00 24° SSW visible
02 Apr ? 03:41:22 10° ENE 03:43:32 14° E 03:45:35 10° ESE visible
02 Apr ? 05:15:43 10° N 05:19:45 58° WNW 05:22:25 20° SSW visible
03 Apr ? 03:52:54 10° NE 03:55:47 18° E 03:57:58 13° SE visible
03 Apr ? 05:27:56 10° N 05:31:50 43° WNW 05:34:48 16° SW visible
04 Apr ? 04:04:39 10° NE 04:08:00 24° E 04:10:19 15° SE visible
04 Apr ? 05:40:12 10° N 05:43:51 32° WNW 05:47:09 12° SW visible
05 Apr ? 04:16:29 10° NNE 04:20:09 32° E 04:22:39 17° SSE visible
05 Apr ? 05:52:29 10° N 05:55:51 25° WNW 05:59:10 10° WSW visible
06 Apr ? 04:28:22 10° NNE 04:32:15 42° E 04:34:57 18° SSE visible
06 Apr ? 06:04:50 10° NNW 06:07:47 20° WNW 06:10:42 10° WSW visible
07 Apr ? 04:40:18 10° NNE 04:44:19 58° E 04:47:14 17° S visible
08 Apr ? 04:52:16 10° NNE 04:56:20 79° ESE 04:59:30 16° S visible
09 Apr ? 03:31:12 10° ENE 03:31:58 10° E 03:32:43 10° E visible
09 Apr ? 05:04:15 10° N 05:08:19 77° WNW 05:11:44 14° SSW visible
